Wind_Speed
22 22 22 22 23 23 23 23 22 21 22 23 23 22 21 21 20 19 18 19 19 18 18 17 16 15 14 14 13 13 12 11 11 10 9 10 10 10 10 10 10 9 8 8
23 23 23 24 24 24 24 24 23 22 23 24 24 23 22 21 20 20 20 20 20 20 19 19 17 16 15 15 14 14 14 13 12 11 11 11 11 11 10 11 10 10 9 10
23 23 24 25 25 25 25 25 24 24 25 25 25 25 23 23 23 22 22 21 21 21 19 19 19 18 17 16 16 16 16 15 14 14 13 13 13 13 12 11 11 11 11 11
23 23 24 25 25 25 26 26 26 27 27 26 26 27 24 24 24 23 22 21 20 21 21 20 20 20 19 19 17 17 17 17 16 16 15 15 14 14 13 13 12 12 12 12
23 23 24 24 24 25 26 27 27 28 28 28 28 29 26 25 25 25 24 23 22 22 21 21 21 21 20 20 20 19 19 19 18 17 17 16 16 15 15 15 14 14 13 13
23 23 23 23 24 25 26 26 27 28 29 30 28 30 28 26 25 25 24 23 23 23 22 21 21 21 22 21 22 21 20 20 20 19 18 17 17 17 17 16 16 15 14 14
23 23 22 23 24 25 26 27 28 29 29 31 29 31 29 26 26 25 25 24 24 24 24 23 22 22 22 23 23 23 22 22 21 20 19 18 18 18 18 18 17 16 16 15
23 23 23 23 23 25 26 27 28 30 30 30 30 30 28 27 26 25 26 26 25 25 25 24 23 23 23 24 24 24 24 24 23 21 21 19 19 19 19 19 18 17 17 17
24 24 23 24 24 25 26 28 28 30 30 31 30 30 29 28 28 27 26 26 26 26 25 24 24 24 25 25 25 25 25 25 24 23 23 21 20 20 21 20 19 19 19 19
24 24 24 24 25 26 26 27 29 30 31 31 30 29 28 27 28 28 27 26 25 26 27 27 26 26 26 26 25 26 25 24 24 23 23 22 21 21 21 20 19 19 20 20
24 24 24 25 26 25 26 27 28 29 30 31 31 30 28 27 26 27 28 28 28 27 27 27 27 27 26 25 25 25 25 24 24 23 22 22 22 22 21 20 20 20 21 21
23 24 25 25 26 26 26 27 27 28 30 31 32 30 28 27 27 26 27 27 28 27 26 27 28 27 26 26 25 25 26 25 24 24 24 23 23 23 23 22 22 21 21 22
23 24 25 24 26 27 27 27 28 29 30 31 32 31 29 28 28 27 27 27 27 27 26 26 27 28 28 27 26 26 26 26 26 25 25 24 24 25 24 24 24 22 22 23
24 25 25 25 25 26 27 28 29 30 32 32 32 31 31 30 29 29 28 27 27 27 26 27 27 27 28 28 28 28 27 27 26 26 26 25 26 26 26 25 24 24 24 23
25 26 26 26 26 27 28 28 29 30 31 32 32 31 31 30 30 30 29 29 28 28 28 28 28 28 29 29 29 29 27 27 27 28 27 27 26 26 26 26 25 25 25 24
25 26 25 25 26 27 27 27 28 29 29 31 31 31 31 31 30 30 30 30 30 30 30 29 30 30 30 30 29 28 28 27 27 28 27 28 28 27 26 25 25 24 25 25
25 25 26 25 25 26 25 26 27 27 28 29 30 30 30 30 30 29 30 30 30 30 30 30 31 30 30 30 29 29 29 28 28 28 28 29 28 28 27 27 26 25 24 24
24 25 25 26 25 26 25 25 27 28 28 28 29 29 28 29 30 30 30 31 31 31 32 31 31 31 31 30 30 31 29 29 30 29 29 29 29 29 29 29 27 27 25 25
23 24 25 25 25 25 25 26 26 27 26 27 27 28 28 27 28 28 30 30 31 30 30 30 30 29 30 31 31 31 30 30 30 30 29 30 30 29 29 28 26 26 26 25
22 22 23 24 24 24 24 25 25 25 25 25 26 27 27 27 27 26 27 28 28 29 29 30 31 30 29 29 29 29 29 28 29 29 30 30 30 29 29 29 28 28 27 26
21 21 22 22 23 23 23 23 23 24 24 24 24 25 25 25 26 25 26 26 27 28 28 29 30 30 29 29 29 28 28 28 28 28 28 29 29 28 28 28 29 29 28 28
21 21 21 21 22 22 21 22 22 22 23 23 23 24 24 24 25 26 26 27 27 28 27 26 27 28 28 27 27 27 27 27 28 28 28 27 28 28 28 29 29 29 29 29
20 19 20 20 20 20 19 20 19 19 20 19 20 23 23 23 23 24 25 26 26 25 26 26 26 26 26 26 26 26 27 27 26 27 28 28 28 29 29 29 30 30 30 30
18 18 18 17 17 18 18 18 19 19 19 19 19 20 21 22 21 21 21 22 23 24 24 25 25 26 25 24 24 25 26 27 27 26 27 28 28 29 29 29 30 30 31 31
16 15 16 17 17 18 18 19 19 20 19 19 19 19 19 19 18 19 20 20 21 22 23 23 23 23 23 23 24 25 26 27 28 28 28 28 29 29 29 29 30 30 31 31
17 17 17 17 18 18 19 19 20 20 20 19 19 19 18 18 18 18 19 19 20 21 21 22 22 22 22 23 23 25 26 27 28 28 28 28 28 28 28 28 29 29 30 30
Wind_Direction
248 247 248 250 251 250 251 252 252 250 253 255 256 254 254 255 256 257 259 264 269 272 274 276 278 279 279 276 273 275 278 279 281 284 287 292 299 297 296 301 307 306 307 308
249 249 249 249 251 252 253 254 255 254 254 256 257 254 254 254 254 257 259 262 266 270 272 274 276 276 277 275 274 270 271 273 278 282 283 285 290 291 288 294 298 298 301 302
251 251 251 251 252 254 257 258 257 255 257 259 260 256 257 256 254 256 259 260 263 267 269 271 271 274 274 272 272 269 268 270 274 278 281 280 281 283 279 284 287 288 292 295
249 250 252 253 254 256 258 258 257 256 257 259 261 260 258 259 256 257 259 260 263 267 270 271 270 270 270 269 270 268 268 270 270 273 275 276 274 276 277 280 285 285 287 289
249 251 253 255 256 258 258 257 257 257 257 259 260 263 262 261 259 260 262 262 262 265 268 271 270 267 269 267 267 266 267 268 268 268 271 273 272 272 275 278 282 282 282 284
248 251 254 256 256 257 257 255 255 256 257 258 261 263 262 261 262 262 263 260 260 262 264 266 267 267 267 265 264 264 265 265 266 266 267 270 272 271 272 276 280 279 279 280
248 251 255 257 257 257 257 256 256 257 258 260 261 264 265 263 262 263 264 262 261 262 263 262 263 264 265 263 264 263 264 265 264 262 264 266 269 269 272 274 277 276 275 275
253 253 255 257 258 259 256 257 259 261 263 264 262 263 265 264 264 265 264 263 262 263 263 260 260 261 261 262 263 265 264 263 262 260 261 263 267 269 273 274 274 272 271 272
258 256 256 258 259 259 258 258 261 264 265 265 264 265 264 265 266 265 266 265 264 264 263 260 260 259 257 258 260 262 263 263 261 260 259 261 264 266 269 271 272 271 270 270
261 260 256 257 258 259 259 259 260 262 265 267 266 265 266 267 265 265 265 264 265 262 260 260 260 258 257 258 258 260 263 263 260 259 259 259 262 265 266 267 268 269 270 270
264 263 259 259 258 260 259 259 260 262 264 267 269 269 270 271 268 266 265 265 263 262 259 258 257 255 256 256 258 261 261 260 256 256 258 258 261 264 264 264 265 268 270 269
269 268 263 260 259 260 259 260 261 262 264 267 269 271 270 271 268 266 267 266 265 263 262 260 258 256 260 261 261 260 258 255 255 257 260 260 260 261 263 264 266 267 268 269
272 271 266 263 260 259 260 260 262 264 265 267 268 271 270 270 269 267 268 266 265 263 263 262 262 260 262 261 261 261 258 254 255 258 261 260 259 261 263 264 265 266 266 268
271 270 268 266 264 261 260 260 262 263 264 266 267 270 270 269 270 267 265 266 266 263 263 265 264 262 260 257 259 260 260 257 257 258 260 259 260 262 264 263 262 264 265 266
272 270 269 268 267 266 263 261 262 263 263 265 267 269 270 269 269 267 265 265 267 265 264 265 265 262 260 256 256 260 260 259 257 255 257 259 261 261 263 263 263 263 262 262
273 272 272 270 270 268 265 262 263 264 265 266 266 268 269 269 268 267 266 266 267 266 265 265 265 264 261 256 255 258 258 257 255 255 256 257 260 260 260 262 263 263 263 263
274 274 273 272 271 270 269 263 262 264 267 267 266 268 268 267 266 266 267 268 267 267 266 266 265 264 262 258 256 257 256 256 255 255 255 255 258 260 261 261 262 263 264 264
275 274 274 274 273 271 271 268 266 266 267 268 269 268 268 269 266 264 265 266 267 266 266 266 265 263 258 255 255 256 257 255 255 255 254 254 257 258 259 260 262 263 263 265
275 276 276 275 274 273 271 270 270 268 267 268 270 270 269 268 266 265 265 266 266 265 264 265 263 263 260 258 258 256 256 254 254 254 254 253 255 257 258 258 261 261 260 263
275 275 276 276 275 276 276 273 271 271 271 272 272 271 270 267 266 266 267 267 265 265 266 265 265 265 263 260 255 254 255 254 254 254 252 252 253 255 258 260 260 260 259 260
276 275 275 275 275 276 277 274 273 274 276 274 274 273 271 270 269 268 268 266 266 268 267 267 265 263 263 259 255 254 254 252 253 254 254 254 253 254 255 258 260 259 259 259
276 275 276 276 276 277 276 276 273 276 279 278 275 276 274 272 271 269 268 269 271 270 269 268 264 263 263 258 256 254 253 252 251 251 253 253 252 253 255 257 260 260 259 258
275 275 276 276 277 278 279 278 275 277 282 282 280 278 276 276 272 272 273 273 272 272 271 269 267 265 263 261 258 255 253 252 252 251 252 252 252 254 256 258 260 260 259 260
276 274 275 276 278 278 279 280 280 281 284 285 284 282 278 278 278 278 275 273 274 274 272 270 268 267 265 263 260 257 253 252 252 253 254 254 254 255 257 258 259 260 259 260
282 282 281 280 282 279 276 279 281 284 285 282 281 282 282 280 278 277 277 276 276 276 273 270 269 267 263 261 259 258 256 255 254 254 256 256 255 257 258 259 260 261 262 261
284 285 284 283 282 281 279 279 280 282 284 284 281 279 280 280 276 276 278 279 275 273 272 271 269 267 264 261 260 259 257 257 256 256 256 256 256 257 258 260 262 264 265 263
Height
5847 5850 5851 5853 5854 5856 5857 5858 5860 5862 5861 5862 5863 5864 5866 5867 5867 5868 5869 5870 5871 5871 5871 5871 5871 5871 5872 5872 5872 5872 5871 5871 5871 5870 5870 5870 5870 5869 5869 5868 5867 5866 5866 5865
5843 5845 5847 5848 5849 5851 5852 5853 5855 5856 5856 5856 5858 5859 5861 5862 5863 5864 5864 5865 5866 5867 5867 5867 5867 5867 5868 5868 5869 5869 5868 5868 5868 5868 5868 5867 5867 5867 5867 5866 5865 5865 5864 5863
5838 5841 5841 5843 5844 5846 5847 5848 5849 5850 5851 5851 5853 5854 5856 5857 5858 5858 5859 5860 5861 5862 5862 5863 5863 5863 5863 5864 5864 5864 5865 5865 5865 5865 5865 5864 5864 5864 5864 5863 5863 5862 5862 5861
5833 5835 5836 5837 5839 5840 5842 5843 5843 5844 5845 5846 5847 5848 5851 5851 5852 5853 5854 5855 5855 5856 5857 5858 5858 5858 5859 5859 5859 5860 5861 5860 5860 5861 5861 5861 5861 5861 5860 5860 5860 5860 5859 5859
5828 5830 5831 5832 5834 5835 5836 5837 5838 5838 5839 5840 5841 5842 5845 5845 5846 5847 5848 5849 5850 5850 5851 5852 5853 5853 5853 5854 5854 5855 5855 5856 5856 5857 5857 5857 5857 5857 5857 5857 5857 5856 5856 5856
5823 5824 5825 5827 5828 5829 5829 5831 5831 5832 5832 5834 5836 5835 5837 5839 5840 5841 5842 5843 5844 5845 5845 5846 5846 5847 5848 5848 5849 5849 5850 5851 5852 5852 5852 5852 5852 5852 5853 5853 5853 5853 5852 5852
5818 5819 5820 5821 5822 5823 5824 5825 5825 5825 5826 5827 5829 5829 5831 5832 5833 5834 5835 5836 5837 5838 5839 5840 5840 5841 5842 5842 5843 5843 5844 5845 5846 5847 5847 5848 5848 5848 5848 5848 5848 5848 5848 5848
5812 5814 5814 5815 5816 5816 5817 5818 5819 5819 5820 5821 5822 5822 5825 5825 5826 5827 5828 5829 5830 5831 5832 5833 5834 5834 5835 5836 5836 5837 5838 5839 5840 5841 5842 5842 5843 5843 5843 5843 5843 5843 5844 5844
5805 5808 5809 5809 5809 5810 5811 5811 5813 5813 5813 5813 5814 5816 5818 5819 5819 5820 5821 5822 5823 5824 5825 5826 5827 5827 5828 5829 5830 5830 5831 5832 5833 5835 5836 5837 5837 5838 5838 5838 5838 5838 5839 5839
5799 5801 5802 5802 5803 5803 5805 5806 5806 5806 5806 5805 5807 5809 5811 5812 5812 5814 5814 5815 5816 5817 5818 5818 5819 5820 5821 5822 5823 5823 5824 5824 5826 5827 5829 5831 5831 5832 5832 5832 5832 5832 5833 5833
5793 5794 5796 5796 5796 5797 5798 5799 5799 5799 5799 5799 5800 5804 5804 5805 5805 5806 5807 5807 5808 5809 5810 5810 5812 5813 5814 5815 5816 5816 5817 5817 5819 5821 5822 5824 5825 5825 5825 5825 5826 5826 5826 5827
5787 5788 5788 5789 5790 5790 5791 5792 5793 5793 5793 5793 5793 5798 5797 5797 5798 5798 5799 5799 5800 5801 5802 5803 5804 5805 5806 5807 5808 5809 5810 5811 5813 5814 5815 5816 5818 5818 5818 5818 5819 5819 5820 5821
5782 5782 5782 5783 5785 5785 5785 5785 5786 5786 5786 5786 5787 5791 5790 5790 5790 5791 5791 5791 5792 5793 5794 5795 5796 5797 5798 5799 5801 5801 5802 5804 5806 5807 5809 5810 5811 5811 5811 5812 5812 5812 5813 5814
5776 5776 5777 5777 5777 5777 5778 5779 5779 5779 5779 5779 5780 5781 5782 5782 5782 5783 5783 5784 5784 5785 5786 5787 5788 5789 5791 5792 5793 5795 5795 5796 5797 5800 5801 5802 5803 5804 5804 5804 5805 5806 5806 5807
5770 5770 5770 5770 5770 5770 5770 5771 5771 5772 5772 5772 5773 5773 5774 5774 5774 5775 5775 5776 5776 5777 5778 5779 5780 5781 5782 5784 5785 5787 5788 5789 5790 5792 5794 5795 5796 5796 5797 5797 5798 5798 5799 5800
5763 5763 5763 5763 5763 5762 5762 5763 5764 5764 5764 5764 5764 5765 5765 5765 5765 5766 5767 5767 5768 5768 5769 5770 5771 5772 5773 5775 5776 5778 5779 5781 5783 5784 5786 5787 5788 5789 5789 5790 5790 5791 5792 5793
5757 5757 5757 5757 5756 5755 5755 5756 5756 5757 5757 5757 5757 5758 5757 5757 5757 5758 5758 5759 5759 5759 5760 5760 5761 5762 5763 5765 5767 5769 5770 5772 5774 5776 5777 5779 5780 5781 5782 5782 5782 5783 5784 5785
5751 5750 5750 5749 5750 5749 5751 5749 5749 5749 5750 5749 5749 5749 5749 5749 5749 5749 5750 5750 5750 5750 5750 5750 5751 5753 5754 5756 5758 5759 5761 5763 5765 5767 5769 5771 5772 5773 5774 5774 5774 5776 5777 5778
5745 5744 5743 5743 5742 5741 5743 5742 5741 5742 5743 5742 5741 5741 5741 5741 5741 5741 5741 5740 5740 5740 5741 5741 5742 5743 5744 5746 5748 5750 5752 5754 5756 5758 5760 5762 5763 5765 5766 5766 5767 5768 5769 5770
5739 5738 5738 5736 5735 5735 5737 5736 5734 5735 5735 5735 5734 5733 5733 5733 5733 5733 5732 5732 5731 5731 5732 5732 5733 5734 5735 5737 5738 5741 5743 5745 5747 5749 5751 5753 5754 5756 5757 5758 5760 5761 5762 5763
5733 5732 5732 5730 5729 5729 5729 5729 5729 5730 5730 5728 5727 5726 5726 5725 5725 5725 5724 5724 5723 5723 5723 5724 5724 5725 5726 5727 5729 5731 5733 5735 5737 5740 5742 5743 5745 5747 5749 5750 5751 5752 5754 5755
5727 5727 5726 5725 5724 5725 5723 5723 5724 5724 5722 5721 5720 5720 5719 5718 5717 5717 5717 5717 5716 5716 5715 5715 5715 5716 5717 5719 5720 5722 5724 5726 5728 5731 5733 5734 5737 5739 5740 5741 5742 5744 5745 5747
5722 5722 5721 5721 5721 5719 5718 5717 5717 5717 5716 5715 5714 5713 5712 5711 5710 5709 5709 5709 5709 5708 5708 5707 5708 5708 5710 5711 5712 5714 5716 5718 5720 5722 5724 5726 5728 5730 5731 5733 5734 5736 5737 5738
5717 5717 5716 5715 5714 5714 5713 5713 5712 5712 5711 5710 5709 5708 5706 5705 5704 5703 5703 5703 5702 5701 5700 5700 5701 5701 5702 5703 5705 5707 5709 5710 5712 5715 5717 5719 5720 5722 5724 5725 5726 5727 5729 5730
5712 5712 5711 5710 5710 5709 5708 5708 5707 5707 5706 5704 5704 5702 5701 5700 5699 5698 5697 5696 5695 5694 5694 5694 5694 5695 5696 5696 5698 5699 5701 5703 5705 5707 5709 5711 5712 5714 5716 5717 5718 5719 5720 5721
5708 5708 5707 5706 5705 5705 5704 5703 5702 5701 5700 5699 5698 5697 5696 5694 5693 5693 5692 5691 5689 5689 5688 5688 5688 5688 5689 5690 5691 5692 5693 5695 5697 5699 5701 5703 5704 5706 5707 5708 5710 5710 5712 5713